• Join FlightAware (Why Join?)
  • Login
  • US Flag 
12:56AM EDT


 

Airport Tracker/Info


-or-


 

Live Flight TrackerFlight Track Log ✈ RPA3392 ✈ 26-Jun-2013 ✈ KDCA - KALB

Flight Track Log - Related Links

Times and Time Zones

All times are in EDT time to prevent confusion due to time zone crossing. See the RPA3392 flight status page for this flight to view local times or setup timezone preferences in your user account.

Time Position Orientation Groundspeed Altitude Reporting Facility
EDT Latitude Longitude Course Direction KTS MPH feet Rate Location/Type
10:29PM 38.9000 -77.0833 286° West 184 212 2,100  Level Potomac TRACON
10:30PM 38.9500 -77.1333 322° Northwest 252 290 4,900 3,120 Climbing Potomac TRACON
10:31PM 39.0000 -77.2000 314° West 277 319 8,400 3,300 Climbing Potomac TRACON
10:32PM 39.0167 -77.3000 282° West 276 318 11,600 3,000 Climbing Potomac TRACON
10:34PM 39.0500 -77.4167 290° West 312 359 14,700 1,980 Climbing Potomac TRACON
10:35PM 39.6887 -77.6323 286° West  Level FlightAware Approximate
10:35PM 39.1806 -77.4472 350° North 319 367 17,100  Level Washington Center
10:36PM 39.2700 -77.4467 360° North 319 367 17,100 300 Level Washington Center
10:37PM 39.3722 -77.4519 358° North 336 387 17,800 1,320 Climbing Washington Center
10:38PM 39.4564 -77.5294 325° Northwest 354 407 19,800 1,860 Climbing Washington Center
10:39PM 39.5275 -77.6364 311° West 359 413 21,600 1,620 Climbing Washington Center
10:40PM 39.6008 -77.7433 312° West 372 428 23,100 1,560 Climbing Washington Center
10:41PM 39.6758 -77.8561 311° West 392 451 24,700 1,500 Climbing Washington Center
10:42PM 39.7536 -77.9692 312° West 409 471 26,200 1,080 Climbing Cleveland Center
10:43PM 39.8311 -78.0825 312° West 414 476 27,000 360 Climbing Cleveland Center
10:44PM 39.9067 -78.2014 310° West 424 488 27,000  Level Cleveland Center
10:45PM 40.0008 -78.3147 317° Northwest 424 488 27,000  Level Cleveland Center
10:46PM 40.1203 -78.3406 351° North 406 467 27,000  Level Cleveland Center
10:47PM 40.2414 -78.3500 357° North 412 474 27,000  Level Cleveland Center
10:48PM 40.3603 -78.3650 355° North 422 486 27,000  Level Cleveland Center
10:49PM 40.4817 -78.3775 356° North 427 491 27,000  Level Cleveland Center
10:50PM 40.6047 -78.3897 356° North 432 497 27,000  Level Cleveland Center
10:51PM 40.7239 -78.4022 355° North 432 497 27,000  Level Cleveland Center
10:52PM 40.8533 -78.4172 355° North 447 514 27,000  Level Cleveland Center
10:53PM 40.9786 -78.4294 356° North 453 521 27,000  Level Cleveland Center
10:54PM 41.1061 -78.4447 355° North 453 521 27,000  Level Cleveland Center
10:55PM 41.2294 -78.4544 357° North 453 521 27,000  Level Cleveland Center
10:56PM 41.3536 -78.4061 16° North 443 510 27,000  Level Cleveland Center
10:57PM 41.4525 -78.3503 23° Northeast 436 502 27,000  Level Cleveland Center
10:58PM 41.5528 -78.2550 35° Northeast 426 490 27,000  Level Cleveland Center
10:59PM 41.5956 -78.1303 65° Northeast 428 493 27,000  Level New York Center
11:00PM 41.6428 -77.9689 69° East 433 498 27,000  Level New York Center
11:01PM 41.6925 -77.8019 68° East 461 531 27,000  Level New York Center
11:02PM 41.7375 -77.6369 70° East 473 544 27,000  Level New York Center
11:03PM 41.7867 -77.4697 68° East 478 550 27,000 -120 Level New York Center
11:04PM 41.8333 -77.3017 70° East 478 550 26,800 -660 Descending New York Center
11:05PM 41.8800 -77.1336 69° East 478 550 25,800 -1,020 Descending New York Center
11:06PM 41.9261 -76.9706 69° East 473 544 24,800 -540 Descending New York Center
11:08PM 42.0258 -76.6022 70° East 453 521 24,000 -240 Descending Boston Center
11:09PM 42.0711 -76.4428 69° East 453 521 24,000  Level Boston Center
11:10PM 42.1142 -76.2861 70° East 453 521 24,000  Level Boston Center
11:11PM 42.1592 -76.1261 69° East 453 521 24,000  Level Boston Center
11:12PM 42.1997 -75.9661 71° East 453 521 24,000  Level Boston Center
11:13PM 42.2419 -75.8058 70° East 453 521 24,000  Level Boston Center
11:14PM 42.2844 -75.6422 71° East 453 521 24,000  Level Boston Center
11:15PM 42.3308 -75.4706 70° East 448 516 24,000 -120 Level Boston Center
11:16PM 42.3725 -75.3094 71° East 448 516 23,800 -1,200 Descending Boston Center
11:17PM 42.4094 -75.1567 72° East 443 510 21,600 -2,280 Descending Boston Center
11:18PM 42.4508 -75.0008 70° East 438 504 19,300 -2,220 Descending Boston Center
11:19PM 42.4894 -74.8558 70° East 428 493 17,200 -2,160 Descending Boston Center
11:20PM 42.5214 -74.7136 73° East 399 459 15,000 -2,100 Descending Boston Center
11:21PM 42.5531 -74.5906 71° East 383 441 13,100 -2,040 Descending Boston Center
11:22PM 42.5889 -74.4481 71° East 369 425 11,000 -1,500 Descending Boston Center
11:23PM 42.6222 -74.3389 67° East 349 402 10,200 -1,320 Descending Boston Center
11:24PM 42.6717 -74.2361 57° Northeast 306 352 8,400 -1,800 Descending Boston Center
11:25PM 42.7083 -74.1522 59° Northeast 287 330 6,700 -1,740 Descending Boston Center
11:26PM 42.7578 -74.0575 55° Northeast 282 325 5,000 -1,740 Descending Boston Center